Date,TemperatureHighF,TemperatureAvgF,TemperatureLowF,DewpointHighF,DewpointAvgF,DewpointLowF,HumidityHigh,HumidityAvg,HumidityLow,PressureMaxIn,PressureMinIn,WindSpeedMaxMPH,WindSpeedAvgMPH,GustSpeedMaxMPH,PrecipitationSumIn
2013-1-1,29,27,19,26,19,-100,90,84,76,30.02,29.89,6,2,0,0.00
2013-1-2,20,18,18,13,-12,-100,80,58,71,30.18,29.89,7,2,0,0.00
2013-1-3,27,20,10,21,13,5,84,75,60,30.19,30.03,8,3,0,0.00
2013-1-4,30,26,24,21,17,14,81,68,53,30.13,29.98,12,7,0,0.00
2013-1-5,31,26,24,24,19,16,80,74,67,30.31,30.05,6,3,0,0.00
2013-1-6,34,32,30,30,27,22,92,81,69,30.10,29.87,6,3,0,0.00
2013-1-7,33,29,25,29,24,20,91,81,67,30.37,30.09,7,2,0,0.00
2013-1-8,39,30,23,24,21,19,85,71,49,30.27,30.19,6,2,0,0.00
2013-1-9,46,35,24,35,18,-100,88,68,50,30.37,30.05,13,3,0,0.00
2013-1-10,40,32,22,29,24,19,90,74,50,30.57,30.23,3,0,0,0.00
2013-1-11,46,41,39,45,14,-100,95,56,46,30.23,29.81,11,3,0,0.00
2013-1-12,58,51,42,52,32,-100,96,78,78,29.93,29.83,9,2,0,0.00
2013-1-13,64,57,51,55,52,45,93,83,69,29.84,29.67,10,4,0,0.00
2013-1-14,55,31,26,53,25,18,93,80,64,30.36,29.69,10,3,0,0.00
2013-1-15,31,27,25,21,18,16,80,70,53,30.36,30.07,2,1,0,0.00
2013-1-16,34,30,27,28,22,-100,83,75,63,30.09,29.79,7,2,0,0.00
2013-1-17,33,30,22,26,23,16,87,74,59,30.11,29.88,10,3,0,0.00
2013-1-18,30,22,16,18,10,4,83,60,50,30.43,30.09,11,5,0,0.00
2013-1-19,48,40,30,25,20,14,54,45,33,30.09,29.61,11,8,0,0.00
2013-1-20,45,28,19,29,17,9,83,63,43,30.08,29.54,13,6,0,0.00
2013-1-21,21,16,11,15,10,2,85,74,51,30.06,29.85,7,3,0,0.00
2013-1-22,10,6,4,6,0,-3,83,78,71,30.22,29.96,8,4,0,0.00
2013-1-23,12,7,3,5,2,-2,81,78,72,30.23,30.06,6,3,0,0.00
2013-1-24,16,10,1,10,3,-5,84,75,53,30.54,30.03,9,2,0,0.00
2013-1-25,15,9,0,9,4,-5,82,78,73,30.52,30.01,2,0,0,0.00
2013-1-26,26,19,13,18,14,9,87,82,70,30.39,30.04,4,1,0,0.00
2013-1-27,30,23,16,16,14,12,87,70,51,30.49,30.27,3,1,0,0.00
2013-1-28,43,35,26,42,29,-100,95,88,68,30.27,29.85,10,4,0,0.00
2013-1-29,58,47,35,52,45,34,98,95,74,29.96,29.62,8,2,0,0.00
2013-1-30,61,56,50,54,50,36,92,79,66,29.62,29.02,14,7,0,0.00
2013-1-31,48,22,17,40,16,10,88,77,59,29.78,29.04,10,6,0,0.00
2013-2-1,17,14,10,14,9,2,87,80,67,30.25,29.76,7,4,0,0.00
2013-2-2,19,14,9,16,9,0,89,81,64,30.24,29.92,6,2,0,0.00
2013-2-3,19,17,15,16,13,9,89,85,78,29.92,29.78,9,2,0,0.00
2013-2-4,22,18,13,17,14,9,89,84,77,29.99,29.84,6,2,0,0.00
2013-2-5,26,21,16,20,17,13,89,83,72,29.87,29.78,3,0,0,0.00
2013-2-6,30,22,10,22,14,4,90,71,42,30.32,29.86,7,2,0,0.00
2013-2-7,44,25,7,23,15,2,82,66,42,30.29,29.88,5,1,0,0.00
2013-2-8,34,28,18,31,23,12,92,82,69,30.10,29.70,12,5,0,0.00
2013-2-9,30,20,11,14,11,6,82,71,43,30.37,30.10,10,3,0,0.00
2013-2-10,47,27,7,21,12,3,86,58,26,30.33,29.83,6,1,0,0.00
2013-2-11,48,38,32,42,27,-100,94,73,46,29.84,29.54,12,6,0,0.00
2013-2-12,31,29,23,24,22,19,88,75,69,29.98,29.77,8,3,0,0.00
2013-2-13,39,28,22,25,22,19,89,79,54,29.88,29.64,6,1,0,0.00
2013-2-14,35,29,20,32,26,17,91,88,82,29.85,29.75,10,3,0,0.00
2013-2-15,35,30,23,30,22,15,86,74,63,30.02,29.78,7,2,0,0.00
2013-2-16,26,21,14,18,10,3,80,64,43,30.01,29.90,8,1,0,0.00
2013-2-17,18,15,9,13,8,3,85,76,64,30.21,29.89,9,3,0,0.00
2013-2-18,42,21,2,26,9,-3,83,62,41,30.27,29.77,6,2,0,0.00
2013-2-19,43,32,17,35,26,12,90,80,52,29.83,29.51,10,6,0,0.00
2013-2-20,19,16,14,14,10,-100,86,82,78,30.14,29.82,9,4,0,0.00
2013-2-21,20,16,10,14,11,5,86,79,70,30.35,30.11,7,2,0,0.00
2013-2-22,33,25,9,30,20,5,91,82,63,30.29,29.92,5,2,0,0.00
2013-2-23,35,32,27,31,27,21,92,84,73,29.92,29.80,4,1,0,0.00
2013-2-24,29,27,25,22,20,17,83,74,65,30.07,29.80,6,2,0,0.00
2013-2-25,41,29,19,25,20,16,91,71,42,30.18,30.03,2,0,0,0.00
2013-2-26,38,32,26,32,25,18,91,74,57,30.06,29.50,7,2,0,0.00
2013-2-27,38,35,32,36,32,30,93,90,84,29.57,29.47,6,3,0,0.00
2013-2-28,33,31,30,30,28,25,92,88,81,29.74,29.49,6,3,0,0.00
2013-3-1,29,26,23,27,22,19,92,86,81,29.93,29.74,6,3,0,0.00
2013-3-2,23,22,21,20,18,17,87,84,81,29.92,29.89,6,2,0,0.00
2013-3-3,24,22,20,20,17,14,88,81,72,29.95,29.87,7,3,0,0.00
2013-3-4,30,22,14,16,15,10,84,73,53,30.06,29.94,8,3,0,0.00
2013-3-5,39,26,13,24,18,9,87,73,50,30.07,29.68,3,0,0,0.00
2013-3-6,40,34,29,28,24,21,85,68,54,30.05,29.67,4,0,0,0.00
2013-3-7,36,32,29,31,28,25,92,87,79,30.24,30.04,7,3,0,0.00
2013-3-8,41,32,27,29,25,21,90,76,47,30.37,30.24,8,3,0,0.00
2013-3-9,52,36,22,32,24,20,94,66,32,30.37,30.07,3,0,0,0.00
2013-3-10,66,53,43,34,26,18,45,35,28,30.07,29.83,7,4,0,0.00
2013-3-11,59,53,46,44,32,27,92,47,33,29.85,29.53,7,3,0,0.00
2013-3-12,45,36,31,43,30,24,92,79,68,29.90,29.61,8,3,0,0.00
2013-3-13,33,28,24,26,22,14,89,77,57,30.01,29.81,10,4,0,0.00
2013-3-14,29,25,23,19,14,12,76,63,56,30.14,30.01,10,5,0,0.00
2013-3-15,36,30,20,31,24,16,92,79,68,30.06,29.77,8,3,0,0.00
2013-3-16,34,29,23,30,26,18,92,88,80,29.94,29.63,4,0,0,0.00
2013-3-17,35,26,20,23,18,12,88,71,43,30.21,29.94,4,1,0,0.00
2013-3-18,34,28,19,32,22,-100,91,80,65,30.18,29.59,6,3,0,0.00
2013-3-19,34,29,24,32,24,16,93,80,60,29.85,29.59,10,4,0,0.00
2013-3-20,30,25,20,23,17,11,89,72,54,29.87,29.81,8,3,0,0.00
2013-3-21,25,21,14,22,15,9,90,79,60,29.82,29.77,6,2,0,0.00
2013-3-22,27,24,22,22,20,18,91,82,72,29.96,29.80,5,2,0,0.00
2013-3-23,36,28,21,23,20,17,85,73,52,30.02,29.93,7,1,0,0.00
2013-3-24,36,27,16,22,18,13,89,70,49,30.01,29.50,3,0,0,0.00
2013-3-25,36,32,30,31,28,20,90,83,60,29.70,29.43,3,0,0,0.00
2013-3-26,41,33,28,30,28,25,91,81,59,29.98,29.70,9,2,0,0.00
2013-3-27,38,33,31,30,27,23,91,78,57,30.07,29.96,5,2,0,0.00
2013-3-28,36,32,30,31,29,27,93,88,77,30.19,30.03,6,1,0,0.00
2013-3-29,47,37,31,31,26,21,89,67,40,30.19,30.10,8,2,0,0.00
2013-3-30,53,38,23,27,22,18,87,57,27,30.18,29.94,5,1,0,0.00
2013-3-31,51,44,36,42,30,-100,92,63,39,29.94,29.58,9,2,0,0.00
2013-4-1,44,34,27,40,22,10,89,63,38,29.96,29.54,11,5,0,0.00
2013-4-2,35,28,23,22,14,10,86,58,37,30.11,29.96,10,4,0,0.00
2013-4-3,33,28,22,18,15,11,71,58,43,30.39,30.11,11,4,0,0.00
2013-4-4,54,34,16,19,11,4,86,47,14,30.34,29.88,6,1,0,0.00
2013-4-5,44,36,27,29,20,12,68,55,36,30.12,29.82,11,3,0,0.00
2013-4-6,53,37,19,22,15,10,89,49,18,30.24,29.90,8,2,0,0.00
2013-4-7,69,55,39,46,33,13,79,44,23,29.93,29.69,12,6,0,0.00
2013-4-8,68,52,30,48,39,28,93,65,42,29.99,29.75,9,3,0,0.00
2013-4-9,72,58,44,55,46,40,87,66,44,30.01,29.74,8,3,0,0.00
2013-4-10,68,54,41,61,50,39,94,86,71,29.85,29.68,7,1,0,0.00
2013-4-11,48,45,41,45,42,39,95,92,86,29.84,29.57,5,1,0,0.00
2013-4-12,58,48,38,56,44,30,94,86,73,29.75,29.36,8,4,0,0.00
2013-4-13,42,39,34,35,32,27,86,76,60,29.93,29.74,8,4,0,0.00
2013-4-14,48,39,31,33,29,25,81,68,53,30.08,29.93,4,1,0,0.00
2013-4-15,70,57,42,47,40,30,66,53,36,29.98,29.90,9,4,0,0.00
2013-4-16,68,56,48,57,49,44,90,77,63,30.10,29.88,8,4,0,0.00
2013-4-17,69,54,42,45,38,32,89,58,27,30.22,29.98,4,1,0,0.00
2013-4-18,81,70,54,59,53,40,79,58,39,29.98,29.57,11,6,0,0.00
2013-4-19,72,56,39,57,44,26,91,65,51,29.70,29.28,11,6,0,0.00
2013-4-20,39,34,27,30,25,19,88,68,51,30.35,29.70,10,6,0,0.00
2013-4-21,52,35,22,30,23,19,91,64,28,30.58,30.36,5,1,0,0.00
2013-4-22,62,47,32,32,25,20,74,45,27,30.42,30.18,7,2,0,0.00
2013-4-23,69,54,38,37,31,22,69,43,27,30.18,29.80,6,3,0,0.00
2013-4-24,61,48,34,53,41,29,91,77,31,30.03,29.57,8,4,0,0.00
2013-4-25,53,40,31,37,32,27,92,75,40,30.26,30.03,9,3,0,0.00
2013-4-26,58,42,27,40,28,23,94,63,27,30.41,30.26,4,0,0,0.00
2013-4-27,72,53,32,38,30,27,87,49,19,30.33,30.04,4,1,0,0.00
2013-4-28,60,54,50,50,42,-100,91,68,35,30.04,29.83,7,3,0,0.00
2013-4-29,62,55,49,54,50,45,90,83,71,29.91,29.83,6,2,0,0.00
2013-4-30,72,61,52,53,50,48,92,71,44,30.06,29.90,6,2,0,0.00
2013-5-1,77,64,53,49,45,34,82,54,30,30.18,30.06,5,2,0,0.00
2013-5-2,78,65,51,39,31,22,51,30,13,30.24,30.09,5,2,0,0.00
2013-5-3,75,64,54,41,36,29,51,36,24,30.13,30.03,8,3,0,0.00
2013-5-4,74,61,48,41,37,29,71,43,21,30.11,29.98,5,2,0,0.00
2013-5-5,76,62,47,41,31,15,73,37,13,30.05,29.91,6,2,0,0.00
2013-5-6,75,60,44,49,37,22,70,45,24,30.00,29.87,4,1,0,0.00
2013-5-7,75,63,50,52,48,44,90,62,34,29.94,29.84,2,0,0,0.00
2013-5-8,67,59,54,57,52,49,91,79,57,29.88,29.81,2,0,0,0.00
2013-5-9,75,61,53,57,50,35,94,72,28,29.88,29.79,5,1,0,0.00
2013-5-10,72,59,50,61,50,-100,93,78,61,29.87,29.63,7,2,0,0.00
2013-5-11,59,47,41,57,45,39,94,90,83,29.74,29.60,4,1,0,0.00
2013-5-12,49,40,33,45,31,-100,90,73,46,29.97,29.68,9,4,0,0.00
2013-5-13,47,38,31,28,25,23,81,61,43,30.11,29.95,5,2,0,0.00
2013-5-14,49,40,28,39,31,25,92,74,42,30.11,29.82,5,1,0,0.00
2013-5-15,81,61,44,60,48,37,88,64,36,29.82,29.57,9,2,0,0.00
2013-5-16,77,56,47,52,26,-100,93,59,25,29.87,29.63,8,2,0,0.00
2013-5-17,76,58,42,48,38,-100,90,58,28,30.03,29.87,5,0,0,0.00
2013-5-18,82,66,54,54,46,40,73,52,26,30.06,29.92,2,0,0,0.00
2013-5-19,79,68,58,61,57,54,89,71,50,29.98,29.84,5,1,0,0.00
2013-5-20,84,71,58,65,60,55,92,73,48,29.91,29.74,4,1,0,0.00
2013-5-21,85,75,67,67,63,58,90,69,43,29.78,29.64,6,2,0,0.00
2013-5-22,84,73,65,64,61,54,91,68,42,29.70,29.56,8,3,0,0.00
2013-5-23,71,62,44,61,57,42,92,84,62,29.81,29.59,4,2,0,0.00
2013-5-24,44,40,35,42,35,31,92,83,65,30.21,29.81,6,2,0,0.00
2013-5-25,57,44,31,40,33,29,94,68,39,30.24,30.15,8,2,0,0.00
2013-5-26,64,49,36,41,35,31,92,63,31,30.20,30.14,6,2,0,0.00
2013-5-27,68,51,33,46,37,30,92,63,28,30.19,30.01,4,0,0,0.00
2013-5-28,75,61,50,65,57,45,93,86,65,30.02,29.79,5,1,0,0.00
2013-5-29,82,70,63,69,62,58,93,76,51,29.92,29.80,5,2,0,0.00
2013-5-30,84,72,61,67,62,58,93,74,42,30.02,29.92,2,0,0,0.00
2013-5-31,85,72,59,66,61,57,93,72,42,29.96,29.82,6,1,0,0.00
2013-6-1,82,73,65,66,63,60,90,72,55,29.87,29.61,8,3,0,0.00
2013-6-2,75,68,59,65,58,-100,93,74,52,29.78,29.59,7,2,0,0.00
2013-6-3,63,54,44,54,44,37,87,71,41,29.99,29.78,4,1,0,0.00
2013-6-4,69,53,38,49,42,36,93,71,38,30.08,29.98,4,1,0,0.00
2013-6-5,78,60,43,53,46,41,92,65,30,30.07,29.82,2,0,0,0.00
2013-6-6,65,61,56,62,58,50,93,89,71,29.83,29.65,2,0,0,0.00
2013-6-7,61,56,53,56,53,51,95,90,81,29.76,29.70,3,0,0,0.00
2013-6-8,66,58,53,55,53,49,93,82,64,30.00,29.75,3,1,0,0.00
2013-6-9,77,62,46,59,52,44,94,73,45,30.08,29.90,1,0,0,0.00
2013-6-10,72,67,63,68,63,55,92,86,64,29.90,29.60,3,1,0,0.00
2013-6-11,69,64,60,62,60,58,94,88,75,29.76,29.61,5,2,0,0.00
2013-6-12,76,66,57,67,61,55,94,84,63,29.78,29.65,1,0,0,0.00
2013-6-13,66,62,56,64,58,52,94,90,75,29.71,29.30,7,2,0,0.00
2013-6-14,72,61,52,59,54,50,94,80,56,29.95,29.71,5,1,0,0.00
2013-6-15,77,61,45,56,50,43,94,69,35,30.01,29.87,2,0,0,0.00
2013-6-16,76,67,61,64,60,55,89,79,63,29.88,29.66,5,2,0,0.00
2013-6-17,82,70,60,62,59,56,94,72,42,29.82,29.76,6,1,0,0.00
2013-6-18,74,64,54,62,56,46,94,77,59,29.90,29.74,4,1,0,0.00
2013-6-19,74,59,46,53,47,44,93,68,41,30.07,29.90,3,0,0,0.00
2013-6-20,79,59,45,56,48,43,93,72,35,30.12,30.06,2,0,0,0.00
2013-6-22,86,82,76,66,63,61,65,53,44,30.04,29.91,4,2,0,0.00
2013-6-23,88,77,67,69,65,61,91,68,41,29.98,29.88,5,1,0,0.00
2013-6-24,87,76,66,66,63,61,85,65,44,29.97,29.83,3,1,0,0.00
2013-6-25,86,74,69,70,65,62,86,75,53,29.86,29.74,3,1,0,0.00
2013-6-26,82,76,70,67,66,65,86,73,58,29.69,29.66,1,0,0,0.00
2013-6-27,72,66,63,69,64,61,94,92,86,29.68,29.52,0,0,0,0.00
2013-6-28,76,67,63,68,62,60,95,85,60,29.53,29.37,5,1,0,0.00
2013-6-29,71,65,60,65,62,58,93,89,77,29.58,29.37,2,0,0,0.00
2013-6-30,78,67,59,67,62,57,95,83,64,29.77,29.57,2,0,0,0.00
2013-7-1,71,65,62,66,62,59,93,89,80,29.88,29.72,3,0,0,0.00
2013-7-2,83,70,62,69,64,59,93,82,56,29.93,29.81,2,0,0,0.00
2013-7-3,84,73,64,70,66,62,94,80,55,30.01,29.92,3,0,0,0.00
2013-7-4,81,73,67,69,62,-100,94,79,62,30.06,29.98,4,1,0,0.00
2013-7-5,80,72,66,69,66,64,93,83,66,30.01,29.95,5,1,0,0.00
2013-7-6,85,73,66,71,66,64,94,82,54,30.03,29.88,2,0,0,0.00
2013-7-7,74,70,66,68,66,64,93,87,74,29.95,29.85,3,1,0,0.00
2013-7-8,83,70,65,68,64,62,91,82,57,29.97,29.88,2,0,0,0.00
2013-7-9,84,72,67,73,66,-100,93,85,66,29.93,29.78,3,0,0,0.00
2013-7-10,83,71,64,74,64,-100,93,83,74,29.81,29.63,5,2,0,0.00
2013-7-11,76,66,59,63,55,-100,94,75,49,29.90,29.78,5,1,0,0.00
2013-7-12,79,67,55,62,55,-100,94,73,44,30.01,29.90,1,0,0,0.00
2013-7-13,81,69,58,67,61,56,93,77,54,30.11,29.99,1,0,0,0.00
2013-7-14,86,78,63,72,68,61,94,72,55,30.16,30.11,1,0,0,0.00
2013-7-15,89,76,67,75,69,65,93,80,56,30.19,30.11,2,0,0,0.00
2013-7-16,87,77,67,76,70,65,94,81,61,30.17,30.08,2,0,0,0.00
2013-7-17,91,78,68,75,70,66,94,79,49,30.14,29.99,4,1,0,0.00
2013-7-18,90,79,70,77,71,68,93,79,51,30.02,29.85,2,0,0,0.00
2013-7-19,88,78,71,74,70,67,93,76,56,29.86,29.65,5,2,0,0.00
2013-7-20,76,70,65,71,65,-100,94,86,73,29.78,29.64,6,1,0,0.00
2013-7-21,84,71,61,67,62,59,95,77,46,29.85,29.78,3,0,0,0.00
2013-7-22,80,68,60,69,64,58,94,85,63,29.83,29.63,1,0,0,0.00
2013-7-23,81,70,64,68,64,-100,94,84,60,29.63,29.53,7,0,0,0.00
2013-7-24,69,60,52,60,52,48,92,77,53,29.93,29.63,4,1,0,0.00
2013-7-25,75,60,46,56,50,44,94,73,42,30.00,29.93,3,0,0,0.00
2013-7-26,80,64,49,57,53,47,94,71,38,30.00,29.87,2,0,0,0.00
2013-7-27,72,64,56,64,59,53,93,87,71,29.87,29.69,2,0,0,0.00
2013-7-28,68,62,57,62,54,49,94,78,53,29.90,29.71,5,1,0,0.00
2013-7-29,71,61,56,54,52,49,88,72,50,30.06,29.89,4,1,0,0.00
2013-7-30,76,63,51,61,55,49,94,78,49,30.13,30.04,2,0,0,0.00
2013-7-31,79,65,54,62,57,52,94,78,52,30.05,29.80,2,0,0,0.00
2013-8-1,76,68,60,64,61,56,93,80,58,29.81,29.70,6,2,0,0.00
2013-8-2,74,64,54,62,56,52,94,77,55,29.83,29.76,5,1,0,0.00
2013-8-3,76,68,57,63,58,50,92,72,41,29.88,29.76,5,2,0,0.00
2013-8-4,72,62,56,57,52,-100,94,73,52,29.99,29.86,5,2,0,0.00
2013-8-5,70,59,46,55,49,44,94,74,43,30.04,29.92,1,0,0,0.00
2013-8-6,78,65,52,60,54,49,92,72,43,29.93,29.85,2,0,0,0.00
2013-8-7,78,68,61,68,62,57,91,81,64,29.85,29.76,3,1,0,0.00
2013-8-8,77,71,67,73,64,-100,93,87,79,29.85,29.78,2,0,0,0.00
2013-8-9,77,68,56,66,31,-100,94,66,55,29.91,29.75,7,1,0,0.00
2013-8-10,77,64,54,61,55,51,94,75,43,30.01,29.90,3,0,0,0.00
2013-8-11,80,65,54,60,55,49,94,73,43,30.04,29.93,1,0,0,0.00
2013-8-12,72,62,57,64,59,54,94,90,69,29.95,29.73,2,0,0,0.00
2013-8-13,65,61,53,64,55,-100,95,82,60,29.85,29.67,8,2,0,0.00
2013-8-14,67,56,51,53,48,-100,92,76,48,30.04,29.85,7,2,0,0.00
2013-8-15,70,53,44,56,40,-100,95,78,53,30.09,30.01,2,0,0,0.00
2013-8-16,76,59,46,58,47,-100,95,73,37,30.10,30.03,2,0,0,0.00
2013-8-17,78,63,49,60,54,47,94,74,43,30.17,30.08,2,0,0,0.00
2013-8-18,77,63,53,62,56,-100,94,79,56,30.13,30.02,2,0,0,0.00
2013-8-19,78,64,58,64,50,-100,93,80,57,30.02,29.94,4,0,0,0.00
2013-8-20,82,65,53,64,56,-100,95,77,45,30.06,29.98,4,0,0,0.00
2013-8-21,84,68,55,66,59,53,95,77,43,30.09,29.92,1,0,0,0.00
2013-8-22,82,70,62,68,64,59,93,81,59,29.94,29.84,4,1,0,0.00
2013-8-23,80,69,57,64,58,50,93,71,37,30.06,29.85,3,0,0,0.00
2013-8-24,82,63,48,58,52,46,94,72,32,30.22,30.06,1,0,0,0.00
2013-8-25,82,65,50,62,53,-100,94,72,38,30.26,30.09,2,0,0,0.00
2013-8-26,83,72,64,67,58,-100,92,67,49,30.09,29.84,5,2,0,0.00
2013-8-27,81,66,66,72,57,-100,95,84,67,29.86,29.77,1,0,0,0.00
2013-8-28,77,67,68,74,43,-100,94,76,81,29.83,29.70,1,0,0,0.00
2013-8-29,86,72,66,70,59,-100,95,72,55,29.92,29.82,2,0,0,0.00
2013-8-30,84,69,60,69,55,-100,95,74,56,29.89,29.66,2,0,0,0.00
2013-8-31,82,74,68,71,68,65,91,81,65,29.70,29.60,3,1,0,0.00
2013-9-1,82,70,65,70,63,-100,94,84,63,29.70,29.62,3,0,0,0.00
2013-9-2,80,69,61,70,65,58,94,88,70,29.71,29.61,5,1,0,0.00
2013-9-3,62,59,56,60,55,53,92,88,82,29.92,29.70,2,0,0,0.00
2013-9-4,77,63,53,60,55,51,94,77,50,29.98,29.90,4,1,0,0.00
2013-9-5,69,61,48,57,50,43,90,69,40,30.11,29.90,5,1,0,0.00
2013-9-6,73,55,40,51,44,38,94,73,36,30.22,30.02,1,0,0,0.00
2013-9-7,76,60,45,63,51,43,94,76,44,30.02,29.82,4,0,0,0.00
2013-9-8,73,64,51,63,55,48,93,74,49,29.98,29.78,3,0,0,0.00
2013-9-9,72,61,48,65,56,45,92,84,68,30.01,29.88,3,0,0,0.00
2013-9-10,90,78,68,73,69,65,91,76,56,29.93,29.85,5,2,0,0.00
2013-9-11,88,78,73,73,70,65,91,77,50,29.95,29.82,3,1,0,0.00
2013-9-12,71,66,57,68,63,54,93,88,78,29.86,29.67,6,1,0,0.00
2013-9-13,60,55,50,55,49,43,94,81,57,29.95,29.70,6,1,0,0.00
2013-9-14,64,53,44,46,42,39,90,70,42,30.07,29.94,3,1,0,0.00
2013-9-15,66,50,40,53,43,-100,95,83,51,30.10,29.96,2,0,0,0.00
2013-9-16,66,55,44,55,51,41,94,86,64,30.24,29.98,4,1,0,0.00
2013-9-17,69,49,34,46,39,32,95,74,31,30.36,30.18,2,0,0,0.00
2013-9-18,52,41,39,41,39,37,94,91,89,30.18,30.01,0,0,0,0.00
2013-9-19,75,61,49,60,55,47,93,83,59,30.02,29.90,2,0,0,0.00
2013-9-20,76,66,56,68,62,54,95,87,75,29.92,29.65,3,1,0,0.00
2013-9-21,70,62,57,66,60,54,94,92,85,29.65,29.52,7,1,0,0.00
2013-9-22,55,52,49,51,34,-100,94,80,72,29.88,29.68,3,1,0,0.00
2013-9-23,56,45,40,45,28,-100,92,69,63,30.06,30.00,2,0,0,0.00
2013-9-24,70,49,34,53,42,32,95,80,45,30.09,29.90,2,0,0,0.00
2013-9-25,72,57,45,52,42,-100,95,68,38,29.91,29.77,1,0,0,0.00
2013-9-26,73,61,46,53,47,-100,95,68,33,30.03,29.83,3,0,0,0.00
2013-9-27,72,58,45,55,38,-100,95,70,44,30.14,30.01,1,0,0,0.00
2013-9-28,73,60,47,56,46,-100,95,66,44,30.17,30.01,3,1,0,0.00
2013-9-29,72,59,50,58,50,-100,92,76,60,30.03,29.88,3,0,0,0.00
2013-9-30,66,60,53,58,55,51,94,86,72,29.92,29.86,3,0,0,0.00
2013-10-1,62,59,57,57,56,55,93,89,84,29.90,29.88,1,0,0,0.00
2013-10-2,76,64,53,64,58,51,92,82,58,29.98,29.88,4,1,0,0.00
2013-10-3,76,61,51,66,47,-100,95,78,66,30.00,29.85,4,0,0,0.00
2013-10-4,77,66,63,68,58,-100,94,85,67,29.95,29.87,3,0,0,0.00
2013-10-5,80,67,60,68,52,-100,97,80,59,29.96,29.83,3,0,0,0.00
2013-10-6,79,71,66,67,64,58,93,79,57,29.83,29.56,6,1,0,0.00
2013-10-7,71,54,48,61,48,41,93,81,60,30.01,29.55,8,2,0,0.00
2013-10-8,67,51,40,53,43,38,96,77,39,30.22,30.01,2,0,0,0.00
2013-10-9,69,53,41,45,41,35,90,67,29,30.28,30.15,2,0,0,0.00
2013-10-10,72,52,38,49,41,32,93,71,24,30.17,30.01,1,0,0,0.00
2013-10-11,75,55,41,51,45,39,95,73,30,30.05,29.95,3,0,0,0.00
2013-10-12,76,58,45,57,50,43,93,76,45,30.06,29.96,2,0,0,0.00
2013-10-13,70,61,58,60,53,-100,94,77,62,30.17,30.02,2,0,0,0.00
2013-10-14,65,55,43,56,44,-100,94,75,52,30.25,30.13,5,0,0,0.00
2013-10-15,70,55,40,57,50,38,95,82,61,30.17,29.83,4,0,0,0.00
2013-10-16,62,59,57,59,56,53,94,89,76,29.83,29.68,3,1,0,0.00
2013-10-17,60,50,46,49,36,-100,96,77,61,29.81,29.63,5,1,0,0.00
2013-10-18,60,51,44,44,41,39,92,72,45,29.87,29.72,7,3,0,0.00
2013-10-19,53,47,40,47,41,38,92,81,67,29.83,29.59,5,2,0,0.00
2013-10-20,55,43,37,40,31,-100,93,72,51,29.91,29.76,6,2,0,0.00
2013-10-21,61,52,45,45,37,35,82,58,40,29.91,29.72,7,3,0,0.00
2013-10-22,49,43,38,46,32,-100,92,79,67,29.83,29.70,8,2,0,0.00
2013-10-25,41,38,37,33,30,27,80,71,63,30.19,30.12,5,2,0,0.00
2013-10-26,42,38,33,34,27,24,90,64,52,30.12,29.77,9,4,0,0.00
2013-10-27,44,37,31,38,32,-100,94,84,65,30.01,29.85,4,1,0,0.00
2013-10-28,55,38,28,40,32,-100,94,81,54,30.26,30.01,2,0,0,0.00
2013-10-29,54,41,31,39,33,29,94,74,43,30.35,30.20,2,0,0,0.00
2013-10-30,64,47,32,43,36,29,93,69,34,30.20,29.97,3,0,0,0.00
2013-10-31,63,57,50,56,54,46,93,88,74,30.00,29.28,9,3,0,0.00
2013-11-1,59,53,48,56,45,39,91,75,63,29.58,29.14,10,4,0,0.00
2013-11-2,49,44,39,43,41,37,93,89,75,29.90,29.55,5,1,0,0.00
2013-11-3,43,34,26,37,27,-100,93,77,46,30.42,29.89,7,1,0,0.00
2013-11-4,41,33,23,22,17,11,84,55,29,30.54,30.35,5,1,0,0.00
2013-11-5,53,45,36,33,27,19,63,50,42,30.40,30.22,3,1,0,0.00
2013-11-6,65,53,43,55,40,23,92,62,42,30.23,29.73,8,4,0,0.00
2013-11-7,56,40,33,54,34,24,93,79,58,30.01,29.73,12,4,0,0.00
2013-11-8,39,34,31,33,28,24,93,80,61,30.20,29.97,6,2,0,0.00
2013-11-9,52,41,27,39,26,-100,88,60,37,30.19,29.78,9,4,0,0.00
2013-11-10,50,43,36,38,32,27,85,65,56,30.16,29.78,10,5,0,0.00
2013-11-11,44,37,28,35,30,25,92,76,53,30.15,29.92,8,3,0,0.00
2013-11-12,34,28,25,25,21,17,90,76,55,30.38,30.08,8,3,0,0.00
2013-11-13,34,29,25,23,20,16,91,71,51,30.43,30.21,9,4,0,0.00
2013-11-14,47,36,27,20,17,14,65,48,29,30.21,30.04,9,6,0,0.00
2013-11-15,52,44,37,28,19,16,55,38,27,30.07,29.98,8,4,0,0.00
2013-11-16,58,47,33,44,35,-100,87,67,54,30.15,29.88,7,2,0,0.00
2013-11-17,59,55,51,55,50,42,92,84,68,29.88,29.31,13,6,0,0.00
2013-11-18,54,43,34,46,32,21,75,65,59,29.96,29.36,13,8,0,0.00
2013-11-19,35,32,25,26,23,20,84,68,60,30.36,29.96,8,3,0,0.00
2013-11-20,45,32,21,23,15,8,89,56,23,30.43,30.29,5,1,0,0.00
2013-11-21,40,37,33,37,28,12,90,72,40,30.35,30.14,4,1,0,0.00
2013-11-22,47,42,32,46,38,-100,95,92,81,30.17,29.97,11,3,0,0.00
2013-11-23,33,26,17,27,18,-100,89,78,58,30.24,30.08,13,6,0,0.00
2013-11-24,21,18,15,18,13,9,88,80,62,30.45,30.24,11,5,0,0.00
2013-11-25,31,22,13,24,11,8,86,63,38,30.41,30.11,10,4,0,0.00
2013-11-26,32,30,27,29,25,-100,92,85,81,30.12,29.72,7,2,0,0.00
2013-11-27,30,26,21,28,23,15,93,86,70,29.99,29.66,9,3,0,0.00
2013-11-28,26,22,19,18,16,14,88,79,62,30.34,29.99,5,2,0,0.00
2013-11-29,31,24,17,22,18,12,89,77,57,30.63,30.33,3,0,0,0.00
2013-11-30,30,22,17,19,16,12,85,78,63,30.59,30.38,4,1,0,0.00
2013-12-22,63,51,38,57,46,35,94,84,61,29.87,29.32,14,6,0,0.00
2013-12-23,38,32,27,36,27,17,93,83,66,30.22,29.85,6,2,0,0.00
2013-12-24,27,19,14,22,15,10,88,83,73,30.46,30.17,8,3,0,0.00
2013-12-25,24,17,9,16,9,5,85,73,57,30.46,30.14,5,1,0,0.00
2013-12-26,29,26,19,25,20,13,90,81,65,30.27,30.02,8,3,0,0.00
2013-12-27,36,30,22,26,22,14,76,71,64,30.27,30.11,6,2,0,0.00
2013-12-28,48,40,34,31,26,-100,71,59,51,30.11,29.92,10,6,0,0.00
2013-12-29,41,38,27,37,30,22,93,74,48,29.92,29.59,9,2,0,0.00
2013-12-30,27,18,14,24,12,5,90,76,65,30.17,29.76,10,4,0,0.00
2013-12-31,19,17,14,16,11,6,87,78,70,30.25,29.98,9,3,0,0.00
2014-1-1,22,19,15,17,12,-100,86,81,73,30.32,30.09,4,0,0,0.00
2014-1-2,18,14,7,13,9,1,84,81,78,30.09,29.77,7,1,0,0.00